Terminal Aerodrome Forecast
Issued by NWS St Louis, MO

Home | Current Version | Previous Version | Text Only | Print | Product List | Glossary On
Versions: 1 2 3 4 5 6 7 8 9 10 11 12 13 14 15 16 17 18 19 20 21 22 23 24 25 26 27 28 29 30 31 32
000
FTUS43 KLSX 261120
TAFSTL
TAF
KSTL 261120Z 2612/2718 14007KT P6SM BKN060
     FM261300 16008KT P6SM VCTS OVC060CB
     FM261500 18010G18KT P6SM BKN200
     FM262200 21009KT P6SM VCTS BKN050CB
     FM270200 23005KT P6SM BKN040
     FM270900 30004KT 5SM BR BKN020
     FM271500 VRB03KT P6SM BKN040=

USA.gov is the U.S. government's official web portal to all federal, state and local government web resources and services.